Hourly Data Report for July 07, 2021

LYNN LAKE
MANITOBA
Current Station Operator: NAVCAN

56°51'50.000" N
101°04'34.000" W
356.60 m
5061645
71078
YYL

Download Data

Hourly Data (July 2021)
Hourly Data Report for July 7, 2021
TIME
LST
Temp Definition
°C
Dew Point Definition
°C
Rel Hum Definition
%
Precip. Amount Definition
mm

Wind Dir Definition
10's deg

Wind Spd Definition
km/h
Visibility Definition
km
Stn Press Definition
kPa
Hmdx Definition


Wind Chill Definition


Weather Definition


00:00 11.3 5.4 67 0.0 21 8 16.1 97.65     LegendNANA
01:00 10.5 6.1 74 0.0 22 9 16.1 97.61     LegendNANA
02:00 9.2 5.8 79 0.0 22 9 16.1 97.58     LegendNANA
03:00 8.8 5.7 81 0.0 23 9 16.1 97.55     LegendNANA
04:00 8.5 5.5 81 0.0 23 11 16.1 97.50     LegendNANA
05:00 9.4 5.8 78 0.0 22 11 16.1 97.46     LegendNANA
06:00 12.6 7.6 72 0.0 22 15 16.1 97.43     LegendNANA
07:00 13.1 8.4 73 0.0 22 13 16.1 97.39     LegendNANA
08:00 13.2 9.0 76 0.0 23 9 16.1 97.35     LegendNANA
09:00 15.1 10.0 71 0.0 23 13 16.1 97.30     LegendNANA
10:00 16.5 11.0 70 0.0 23 13 16.1 97.25     LegendNANA
11:00 17.6 11.6 68 0.0 24 17 16.1 97.22     LegendNANA
12:00 19.8 11.6 59 0.0 23 11 16.1 97.12     LegendNANA
13:00 20.6 11.3 55 0.0 24 17 16.1 97.05     LegendNANA
14:00 20.8 11.6 55 0.0 24 13 16.1 97.00     LegendNANA
15:00 20.2 11.7 58 0.0 23 17 16.1 96.98     LegendNANA
16:00 21.2 11.7 54 0.0 24 22 16.1 96.92     LegendNANA
17:00 22.5 12.2 52 0.0 24 18 16.1 96.88 25   LegendNANA
18:00 21.9 11.3 51 0.0 23 15 16.1 96.84     LegendNANA
19:00 22.3 11.4 50 0.0 26 17 16.1 96.79     LegendNANA
20:00 21.2 12.0 55 0.0 22 9 16.1 96.77     LegendNANA
21:00 20.0 12.4 61 0.0 22 8 16.1 96.77     LegendNANA
22:00 18.2 12.7 70 0.0 20 8 16.1 96.74     LegendNANA
23:00 18.0 13.4 74 0.0 21 9 16.1 96.73     LegendNANA

Notes on Data Quality.

Legend

  • E = Estimated
  • M = Missing
  • NA = Not Available*
  • [empty] = Indicates an unobserved value
Date modified: